World > North America > United States > Mississippi > Columbus   City of Columbus, MS

Columbus, MS Hourly Weather Updates

Feedback E-mail the Weather

Quick Clicks

Columbus, MS Weather Maps

°F °C°F °C
Columbus Weather Map
UTC Time: 4/21/2024, 09:28
Your Time:

Columbus, MS Regional Weather

Expires:202404211000;;120269
ASUS44 KJAN 210910
RWRMS 

MISSISSIPPI HOURLY WEATHER ROUNDUP
NATIONAL WEATHER SERVICE JACKSON MS
400 AM CDT SUN APR 21 2024

NOTE: "FAIR: INDICATES FEW OR NO CLOUDS BELOW 12,000 FEET WITH NO
SIGNIFICANT WEATHER AND/OR OBSTRUCTIONS TO VISIBILITY.


MSZ003>006-009-014>017-022>024-029>033-037>039-211000-
NORTHEAST MISSISSIPPI
  
CITY           SKY/WX    TMP DP  RH WIND       PRES   REMARKS
ABERDEEN       CLOUDY    54  52  94 NW3       30.11R                  
COLUMBUS AFB   CLOUDY    54  49  82 NW8       30.05R                  
CORINTH        CLOUDY    54  37  54 N9        30.14R                  
GOLDN TRIANGLE CLOUDY    53  51  93 NW3       30.10R                  
IUKA             N/A     53  34  48 N8        30.12R HAZE             
LOUISVILLE     LGT RAIN  50  50 100 N5        30.12S                  
STARKVILLE     CLOUDY    52  52 100 VRB5      30.08R                  
TUPELO         CLOUDY    54  41  61 N8        30.11R                  
$$


SKY/WX - Weather  TMP - Temperature  DP - Dew Point  RH - Humidity
WIND - Wind Direction/Speed PRES - Barometric Pressure VSB - Visibility
WCI - Wind Chill Index E13G22 Wind - East Wind 13 mph/Gusts of 22 mph

Trending Headlines

Trending Entertainment Headlines

Columbus Radar Loop

Use the map search tool if you want to place a location marker on the radar map...

Columbus Quick Facts

National Two Day Weather Forecast


E-mail the Columbus Weather Forecast

Voice your opinion or tell us about page issues...